Погода в Одессе

Погода в Одессе : погода сейчас, прогноз погоды и архив. Всё, что Вы хотите узнать о погоде в Одессе!

Хотите узнать прогноз погоды в Одессе? Тогда Вам сюда: Погода в Одессе

Поиск расширенной информации на нашем сайте:

Другие новости

Новости СМИ2

Главная страница сайта

Новости сайта

03.07.2017

Напоминаем, что на нашем специализированном сайте Метеоцентр.Азия вы можете получить высокодетализированные автоматические прогнозы погоды по пунктам России, СНГ и мира в авиационном формате (включающие направление и скорость ветра, видимость, явления погоды, количество и форму облачности, нижнюю и верхнюю границу облачности).


Погода в Одессе - сегодня

Время (UTC), дата Ветер
(°,м/с) 
Видим.   Явления Облачность Т
(°С)
Тd
(°С)
f(%) Тe
(°С)
Pmin
(гПа)
dP
(гПа)
Po
(мм)
O2
(г/м3)
Тmin Tmax R s Состояние
почвы
00 17.04.18 тихо ()   45000 м    6/0 верхняя 
[Ci fib]
+9.1 +6.5 84 +9  1021.6  -0.5  762  296           
03 17.04.18 тихо ()   27000 м    9/0 верхняя 
[Ci fib]
+8.6 +6.7 88 +9  1021.2  -0.4  762  297           
06 17.04.18 150 (ЮВ) 45000 м    10/0 верхняя 
[Ci fib]
+11.4 +8.6 83 +12  1021.8  0.7  763  293  +8.2  +2       
09 17.04.18 170 (Ю) 30000 м    10/0 средняя, верхняя 
[Ac trans|Ci fib]
+13.6 +6.7 63 +13  1022.3  0.5  763  292           
12 17.04.18 180 (Ю) 35000 м    10/0 верхняя 
[Ci fib]
+14 +7.3 64 +13  1022.2  -0.1  763  291           
15 17.04.18 180 (Ю) 40000 м    10/0 верхняя 
[Ci fib]
+13.3 +6.2 62 +13  1021.5  -0.7  762  292           
18 17.04.18 230 (ЮЗ) 30000 м    8/0 средняя, верхняя 
[Ac trans|Ci fib]
+12.7 +3.1 52 +14  1021.9  0.4  763  293    +15       
21 17.04.18 250 (З) 14000 м    3/0 верхняя 
[Ci fib]
+11.9 +3.4 56 +12  1022.4  0.5  763  294           
00 18.04.18 270 (З) 40000 м    3/0 средняя 
[Ac trans]
+10.7 +4.4 65 +12  1022.9  0.4  763  295           
03 18.04.18 280 (З) 40000 м    4/0 средняя, верхняя 
[Ac trans|Ci fib]
+10.3 +4.9 69 +10  1023  0.1  763  296           
06 18.04.18 290 (З) 21000 м    4/0 средняя, верхняя 
[Ac trans|Ci fib]
+16.8 +4.2 43 +18  1023.2  0.4  764  289  +10.1  +2.8       
09 18.04.18 360 (С) 23000 м    3/0 верхняя 
[Ci fib]
+20.2 +10 52 +21  1023.1  -0.1  764  285           
12 18.04.18 330 (СЗ) 21000 м    6/4 1000 м верхняя 
[Cu Sc|Ci fib]
+19.8 +10.8 56 +22  1022.8  -0.3  763  285           
15 18.04.18 350 (С) 45000 м    10/3 1000 м средняя, верхняя 
[Sc|Ac trans|Ci fib]
+19.7 +3.4 34 +20  1021.7  -1.1  763  286           
18 18.04.18 280 (З) 35000 м    8/0 средняя, верхняя 
[Ac trans|Ci fib]
+16.6 +8.1 57 +17  1022.4  0.7  763  288    +22.4       
21 18.04.18 290 (З) 30000 м    6/0 верхняя 
[Ci fib]
+13.8 +7.3 65 +14  1022.4  -0.1  763  291           
00 19.04.18 290 (З) 45000 м    8/0 верхняя 
[Ci fib]
+12.8 +4.8 58 +13  1021.7  -0.7  762  293           
03 19.04.18 290 (З) 35000 м    3/0 верхняя 
[Ci fib]
+10.7 +4.2 64 +10  1020.6  -1.1  762  295           
06 19.04.18 300 (СЗ) 28000 м    4/0 средняя, верхняя 
[Ac und|Ci fib]
+14.7 +5.8 55 +15  1019.6  -1  761  290  +10.4         
09 19.04.18 310 (СЗ) 22000 м    9/6 1500 м средняя, верхняя 
[Sc|Ac und|Ci fib]
+17.9 +5.5 44 +18  1017.3  -2.2  759  286           
12 19.04.18 320 (СЗ) 24000 м    8/6 1000 м средняя, верхняя 
[Cu Sc|Ac und|Ci fib]
+20.8 +4.4 34 +21  1014.6  -2.6  757  283           
15 19.04.18 320 (СЗ) 40000 м    6/5 600 м средняя, верхняя 
[Cu Sc|Ac und|Ci fib]
+20.5 +2.8 31 +21  1012.6  -2  756  283           
18 19.04.18 320 (СЗ) 45000 м    8/0 средняя, верхняя 
[Ac trans|Ci fib]
+18.1 +2.8 36 +19  1012.9  0.2  756  285           
21 19.04.18 330 (СЗ) 50000 м    3/0 верхняя 
[Ci fib]
+14 +3.2 48 +15  1013.9  757  290           
00 20.04.18 320 (СЗ) 50000 м    4/0 средняя, верхняя 
[Ac trans|Ci fib]
+11.8 +3.6 57 +11  1014  757  292           
Время (UTC), дата Ветер
(°,м/с) 
Видим.   Явления Облачность Т
(°С)
Тd
(°С)
f(%) Тe
(°С)
Pmin
(гПа)
dP
(гПа)
Po
(мм)
O2
(г/м3)
Тmin Tmax R s Состояние
почвы

Для получения пояснительной информации подведите курсор к названию столбца.

ПОГОДА в Одессе - архив

Всё, что Вы хотите узнать о погоде в Одессе - удобно и подробно!

Выберите нужную дату (начиная с 1 января 2015* года) и нажмите кнопку "Найти".
Будут отображены архивные сводки погоды по пункту Одесса, начиная с указанной даты.


Отображать данные в формате CSV (для использования в таблицах Excel)


Внимание! Наш архив погоды предназначен исключительно для личного некоммерческого использования в познавательных целях. Если Вам необходимы официальные справки о состоянии погоды (для производственных, юридических, коммерческих и т.п. целей), обращайтесь в органы Росгидромета.

*Примечание: данная дата относится к архиву по метеостанциям СССР (Россия, СНГ, Балтия).
Архив по метеостанциям Зарубежной Европы и Азии (кроме Китая) хранится 10 дней, по другим регионам земного шара (Китай, Африка, Америка, Австралия, Океания) - 1 день.

Одесса - район местоположения метеостанции


Название, широта, долгота, высота метеостанции:
Одесса (город) 46.4°ш. 30.8°д. 42 м над ур. моря [Украина]

Дополнительная информация

В oтличие oт бoльшинства пoгoдных сайтoв мы публикуем пoдрoбную метеoинфoрмацию в детальнoм прoфессиoнальнoм фoрмате.

Характеристики температуры и влажнoсти вoздуха измеряются на высoте 2 м в тени вдали oт зданий и деревьев.
Скoрoсть ветра измеряется на высoте 10 м (на урoвне рoста челoвека скoрoсть ветра ниже в 1.5-2 раза). Если метеoстанция нахoдится в гoрoде или в лесу, тo скoрoсть ветра занижена на 2-4 м/с пo сравнению с oткрытым местoм. Скoрoсть ветра над акватoриями крупных рек и oзёр, а также на вершинах хoлмoв на 2-5 м/с выше, чем в oбычных услoвиях.
Атмoсфернoе давление в разных тoчках местнoсти мoжет значительнo oтличаться oт давления на метеoстанции, в зависимoсти oт услoвий рельефа (при пoдъёме на 10 м давление пoнижается примернo на 1 мм рт.ст.).